This is the latest recevied weather packets stored in our database for station/object KC9MWQ-13. If no packets are shown the sender has not sent any weather packets the latest 10 day(s).
| Time | Temp. | Humidity | Pressure | Rain* | Wind** | Luminosity | Snow |
|---|---|---|---|---|---|---|---|
| 1777998138 | 11.11° C | 85% | 1009.5 hPa | 0 mm | - | 126 W/m² | - |
| 1777997835 | 11.67° C | 84% | 1009.4 hPa | 1.78 mm | - | 139 W/m² | - |
| 1777997533 | 11.67° C | 84% | 1009.3 hPa | 1.78 mm | - | 145 W/m² | - |
| 1777997230 | 11.67° C | 84% | 1009.5 hPa | 0 mm | - | 161 W/m² | - |
| 1777996928 | 11.67° C | 82% | 1009.9 hPa | 0 mm | - | 121 W/m² | - |
| 1777996624 | 11.67° C | 81% | 1009.7 hPa | 0 mm | - | 106 W/m² | - |
| 1777996320 | 11.67° C | 81% | 1009.6 hPa | 0 mm | - | 102 W/m² | - |
| 1777996016 | 11.67° C | 81% | 1010.1 hPa | 0 mm | - | 99 W/m² | - |
| 1777995712 | 11.67° C | 80% | 1009.7 hPa | 0 mm | - | 92 W/m² | - |
| 1777995409 | 11.67° C | 80% | 1009.8 hPa | 0 mm | - | 125 W/m² | - |
| 1777995106 | 11.67° C | 80% | 1010 hPa | 0 mm | - | 113 W/m² | - |
| 1777994803 | 11.11° C | 83% | 1009.8 hPa | 0 mm | - | 123 W/m² | - |
| 1777994499 | 11.67° C | 81% | 1009.8 hPa | 0 mm | - | 110 W/m² | - |
| 1777994194 | 11.67° C | 79% | 1009.6 hPa | 0 mm | - | 174 W/m² | - |
| 1777993892 | 11.67° C | 80% | 1009.9 hPa | 0 mm | - | 110 W/m² | - |
| 1777993588 | 11.67° C | 81% | 1009.8 hPa | 0 mm | - | 69 W/m² | - |
| 1777993285 | 11.67° C | 79% | 1009.6 hPa | 0 mm | - | 62 W/m² | - |
| 1777992981 | 11.67° C | 78% | 1009.5 hPa | 0 mm | - | 67 W/m² | - |
| 1777992680 | 11.67° C | 78% | 1009.5 hPa | 0 mm | - | 80 W/m² | - |
| 1777992377 | 12.22° C | 81% | 1009.4 hPa | 0 mm | - | 71 W/m² | - |
| 1777992074 | 12.78° C | 83% | 1009.5 hPa | 0 mm | - | 66 W/m² | - |
| 1777991772 | 14.44° C | 88% | 1009.2 hPa | 0 mm | - | 45 W/m² | - |
| 1777991469 | 14.44° C | 93% | 1008.9 hPa | 0 mm | - | 61 W/m² | - |
| 1777991166 | 14.44° C | 94% | 1008.6 hPa | 0 mm | - | 77 W/m² | - |
| 1777990863 | 14.44° C | 95% | 1008.7 hPa | 0 mm | - | 72 W/m² | - |
* Rain latest hour (hover to see other rain measurements)
** Current wind speed in m/s (hover to see current wind gust speed)